Wind_Speed
61 60 58 55 52 51 51 50 49 47 45 42 40 39 37 33 34 36 38 38 40 43 41 39 37 37 40 45 57 75 89 95 93 89 87 84 80 76 68 65 65 65 67
61 58 56 54 53 52 52 51 51 49 47 45 43 40 38 34 32 33 35 35 36 40 41 39 37 36 37 41 47 60 75 88 92 90 88 86 84 81 75 71 68 64 63
59 57 56 54 53 54 55 55 54 53 52 49 48 45 40 35 31 30 31 32 33 37 39 39 37 36 36 37 42 50 63 76 85 87 85 85 84 82 78 74 72 68 65
58 57 56 56 56 57 57 58 58 58 56 55 51 45 39 34 30 29 29 29 30 34 38 39 37 36 35 35 38 44 54 65 74 79 81 81 81 81 79 75 73 71 68
57 56 57 58 59 60 60 61 62 63 61 57 49 40 33 29 27 27 27 27 27 31 35 38 38 35 35 35 36 38 46 55 64 70 73 75 76 78 78 76 74 72 68
56 57 59 61 61 61 62 63 66 66 61 51 39 28 23 23 23 24 26 26 25 29 33 36 37 36 35 35 35 36 40 46 53 60 65 69 72 75 76 76 75 73 69
55 58 61 63 63 63 64 67 69 67 57 43 28 16 13 18 21 23 25 24 24 27 32 35 37 37 36 37 37 36 38 41 46 51 56 60 64 69 71 72 73 71 68
56 60 63 65 65 65 67 70 70 64 51 36 21 8 9 15 19 21 22 21 21 25 31 35 36 38 38 38 38 38 38 39 42 46 49 51 55 59 62 66 68 68 67
56 60 64 66 66 67 69 72 71 60 46 31 17 5 8 13 17 19 18 18 19 24 31 35 36 37 39 39 39 39 39 40 41 43 44 46 48 51 55 60 64 65 65
56 61 65 67 67 68 71 74 72 60 44 30 17 5 6 11 14 16 15 16 19 24 31 36 38 38 38 38 39 39 39 40 41 40 40 41 41 44 48 52 56 60 63
57 61 64 67 68 69 71 75 74 62 46 32 19 8 4 7 10 12 11 13 17 24 32 37 39 39 38 38 38 38 38 38 38 38 38 37 38 40 43 46 49 53 56
57 60 63 66 68 69 71 73 75 67 50 36 23 12 5 4 6 7 7 8 13 22 32 38 41 42 41 40 39 38 38 37 36 35 34 33 34 37 41 45 47 50 53
57 59 61 64 68 69 69 71 74 72 59 43 31 18 9 5 4 5 4 4 8 17 28 38 41 43 44 43 41 40 39 38 37 35 33 34 35 38 43 48 51 54 55
57 57 59 62 66 68 69 70 72 74 69 55 40 27 16 10 7 6 5 3 4 11 23 34 40 43 45 45 43 42 41 40 39 38 37 37 42 43 44 49 52 54 55
56 56 57 60 63 67 69 70 71 73 74 67 53 39 26 16 11 9 7 4 2 6 17 28 37 41 44 46 45 44 42 41 40 41 40 40 43 46 46 46 50 53 53
56 56 56 57 60 63 67 69 69 69 70 70 65 55 41 28 18 13 9 7 4 3 10 21 32 39 43 46 47 47 45 43 42 42 43 42 42 43 45 46 45 47 51
55 56 55 56 57 60 62 65 67 68 68 68 67 65 57 46 33 22 14 10 6 4 6 15 26 35 41 44 47 48 48 46 44 44 44 43 42 41 41 43 44 44 44
54 54 55 55 55 57 59 61 63 66 67 67 66 65 63 60 52 41 28 18 11 7 6 8 18 29 37 42 45 47 49 49 47 46 46 45 44 43 43 43 43 44 45
51 52 54 54 54 54 55 56 59 61 64 65 65 64 63 61 59 56 49 36 23 13 7 5 9 20 31 38 43 45 47 49 50 49 49 48 47 46 46 47 47 46 46
48 50 51 53 53 52 52 52 54 56 59 61 63 63 63 61 60 58 56 53 44 31 19 9 4 7 19 30 38 43 45 46 49 51 51 51 51 50 49 49 50 50 50
46 47 49 50 51 51 50 50 50 51 54 57 59 61 62 62 60 59 57 55 53 49 40 27 15 5 4 15 28 37 43 46 47 49 52 54 54 53 53 52 52 52 52
44 45 46 48 49 49 49 48 48 48 50 52 54 56 58 60 60 59 58 56 54 51 49 44 36 24 12 3 10 24 36 43 47 48 50 53 55 56 56 56 55 55 55
43 44 44 45 46 47 47 47 47 47 47 48 50 52 53 55 57 58 58 57 55 52 49 47 44 40 32 21 8 5 18 32 43 49 51 53 54 57 58 58 58 58 57
42 42 43 43 43 44 44 44 45 46 46 47 48 49 50 50 52 53 55 56 56 54 51 47 45 42 40 36 29 18 5 12 26 40 49 54 56 57 58 59 60 60 60
40 41 41 42 42 42 42 42 43 44 44 46 47 47 47 48 48 48 49 51 52 52 52 50 46 43 40 37 35 32 26 15 5 18 32 46 54 59 61 61 61 60 60
38 39 40 41 42 41 41 41 41 41 42 44 45 46 46 46 46 47 46 47 47 48 48 49 48 45 41 38 35 33 30 27 22 12 9 23 37 50 59 62 64 63 62
Wind_Direction
338 338 339 338 336 333 331 329 327 324 321 319 317 315 310 297 280 266 253 246 242 240 239 240 242 242 240 232 225 223 220 216 214 215 217 218 219 218 217 219 222 225 227
342 342 341 340 338 336 334 332 329 325 321 318 315 313 311 304 289 272 254 242 238 237 236 236 236 237 237 232 224 221 221 218 215 214 217 219 220 220 220 221 222 224 226
345 345 343 341 339 337 335 332 329 325 321 316 312 309 305 302 292 277 257 240 233 232 232 232 232 232 233 230 224 219 219 219 217 215 216 219 221 222 222 222 223 225 226
347 347 345 342 340 337 334 331 328 325 320 315 309 303 298 294 287 275 260 242 230 226 226 227 228 228 227 226 223 219 216 218 218 218 217 219 221 222 223 223 224 225 226
350 349 346 343 340 337 335 332 329 326 321 316 309 299 290 284 277 268 259 244 229 221 219 221 223 224 222 221 222 219 215 215 217 219 219 219 220 222 224 224 225 226 227
351 351 348 345 343 341 338 336 333 331 327 323 315 300 282 269 261 256 253 243 227 217 213 214 217 218 217 217 217 216 214 212 213 217 219 220 221 222 224 225 227 228 229
353 352 350 349 348 346 343 342 340 337 335 333 326 307 266 251 247 245 245 239 225 214 208 208 211 213 213 213 213 213 212 211 210 212 215 218 220 222 224 226 228 229 230
354 355 354 353 352 351 350 349 346 343 342 342 338 314 239 237 239 242 242 236 222 210 204 203 206 209 210 210 210 209 209 209 209 209 211 214 216 220 223 226 228 228 229
356 357 357 357 357 356 355 355 353 351 349 349 347 322 227 231 238 243 240 230 217 206 201 199 202 206 208 208 208 208 207 207 206 207 207 208 209 212 215 221 224 226 226
358 359 360 1 1 1 0 1 1 359 357 357 355 334 236 234 241 247 242 227 213 205 201 198 198 201 205 207 208 208 208 208 207 207 207 207 208 209 211 214 218 221 222
360 1 2 4 5 5 5 7 7 6 6 4 3 351 274 245 249 256 250 231 216 207 202 199 198 199 201 203 206 207 208 209 210 210 210 212 213 212 211 209 210 212 214
2 3 4 6 8 9 9 11 13 13 13 13 13 9 343 282 268 271 267 244 223 212 206 201 199 198 198 199 201 204 206 207 207 209 210 209 208 205 203 200 198 203 207
5 5 6 9 11 12 13 15 18 19 19 20 21 21 19 360 325 310 305 264 232 218 211 206 202 200 198 198 198 200 201 202 202 204 206 204 200 198 197 196 195 199 205
6 6 8 11 13 15 17 19 21 23 24 24 24 25 28 27 16 2 351 334 247 225 216 210 207 204 201 199 198 198 198 199 200 201 201 201 197 194 194 197 200 202 204
8 7 9 12 15 17 20 21 23 25 27 28 28 28 30 30 27 21 13 357 307 232 218 214 211 209 206 202 200 198 198 199 201 201 201 202 202 201 198 195 196 200 203
10 9 10 13 16 19 22 24 25 27 29 30 31 31 32 32 29 23 15 5 340 257 221 215 213 212 210 207 204 201 200 200 201 201 202 203 205 208 209 206 200 198 200
11 12 12 15 17 20 23 26 28 29 30 32 32 33 34 34 33 28 18 3 341 294 238 219 215 214 213 211 210 207 205 204 204 203 203 204 206 208 210 212 211 208 207
12 13 14 16 18 20 23 25 28 30 31 32 33 34 34 35 35 34 30 20 0 326 278 235 219 216 216 214 214 213 211 209 208 208 207 208 208 209 209 210 212 213 213
12 14 15 16 18 20 22 25 27 29 31 33 33 34 34 34 35 35 35 33 29 16 343 278 234 219 218 218 217 216 216 215 214 213 212 212 213 213 213 212 212 212 213
11 12 14 16 17 19 22 24 26 28 31 33 34 34 35 35 35 35 36 37 38 36 32 17 313 238 221 219 220 218 218 218 218 217 216 215 216 217 217 217 216 215 215
9 11 13 14 17 19 21 24 26 27 29 31 33 34 34 35 35 35 36 36 38 39 40 38 33 9 254 224 221 221 220 220 220 220 219 219 219 219 220 220 220 219 219
9 10 12 14 16 18 21 24 26 27 28 30 32 33 34 34 35 35 35 36 36 37 39 40 41 39 32 340 230 224 223 222 223 223 223 222 222 222 222 223 223 223 223
10 11 11 13 15 18 20 23 25 27 28 29 30 31 31 32 33 34 35 35 35 36 36 37 38 40 40 37 25 246 227 225 225 225 225 225 225 225 226 226 227 227 228
11 12 13 13 14 16 18 20 23 25 26 27 28 28 28 29 29 30 31 32 33 34 34 34 34 35 36 37 37 33 354 240 229 228 227 227 227 227 227 228 228 229 231
9 12 14 14 14 14 15 16 18 21 23 24 25 26 26 26 26 27 27 27 29 30 31 31 30 30 31 31 32 33 32 25 304 241 232 230 229 228 228 228 228 228 229
6 9 12 14 14 14 14 14 15 17 19 21 23 23 24 24 24 24 24 24 24 26 27 27 27 26 27 27 27 27 27 26 24 9 274 240 233 231 229 229 229 229 229
Height
5511 5498 5485 5473 5462 5451 5441 5430 5421 5411 5402 5394 5387 5380 5374 5370 5367 5366 5369 5374 5379 5384 5390 5395 5400 5404 5408 5412 5420 5433 5451 5471 5492 5512 5525 5539 5553 5568 5580 5591 5601 5612 5623
5503 5490 5478 5466 5454 5443 5432 5421 5411 5401 5391 5382 5375 5368 5363 5358 5354 5353 5355 5361 5366 5371 5377 5383 5389 5394 5399 5403 5409 5419 5434 5452 5473 5493 5509 5523 5537 5551 5564 5576 5588 5599 5610
5496 5484 5471 5459 5447 5436 5424 5412 5400 5389 5379 5369 5361 5355 5350 5346 5342 5341 5342 5348 5354 5359 5366 5373 5379 5385 5390 5395 5401 5409 5421 5437 5456 5476 5493 5507 5522 5535 5549 5562 5573 5585 5596
5491 5479 5466 5453 5440 5427 5414 5401 5388 5375 5364 5353 5344 5338 5335 5333 5330 5329 5331 5336 5342 5348 5355 5362 5369 5375 5382 5387 5393 5400 5410 5425 5442 5460 5477 5491 5505 5519 5533 5547 5560 5571 5583
5487 5474 5461 5446 5432 5418 5403 5389 5374 5359 5345 5332 5323 5318 5318 5318 5318 5318 5320 5324 5331 5337 5344 5353 5360 5367 5374 5380 5387 5394 5403 5416 5430 5445 5461 5475 5489 5503 5518 5533 5545 5556 5569
5483 5470 5456 5441 5426 5410 5394 5378 5361 5342 5326 5311 5303 5301 5302 5304 5306 5308 5309 5315 5322 5328 5335 5344 5352 5360 5367 5374 5381 5388 5397 5407 5420 5433 5448 5461 5474 5489 5503 5516 5529 5543 5558
5480 5466 5451 5436 5420 5403 5386 5367 5347 5327 5310 5298 5291 5289 5291 5293 5296 5298 5301 5307 5314 5321 5328 5336 5344 5352 5360 5368 5375 5383 5391 5401 5411 5423 5436 5448 5462 5477 5492 5507 5517 5529 5542
5478 5464 5448 5432 5415 5398 5379 5359 5337 5316 5300 5290 5285 5283 5285 5287 5290 5293 5296 5301 5307 5314 5321 5328 5336 5344 5353 5361 5370 5378 5386 5395 5405 5416 5428 5440 5452 5465 5479 5491 5503 5515 5528
5476 5462 5447 5430 5413 5394 5375 5354 5332 5310 5295 5286 5282 5280 5282 5283 5286 5288 5291 5295 5301 5307 5313 5320 5328 5336 5345 5354 5364 5373 5381 5390 5399 5409 5419 5430 5441 5453 5464 5475 5487 5500 5512
5474 5459 5444 5428 5410 5392 5372 5351 5328 5307 5293 5285 5281 5279 5280 5281 5283 5285 5287 5291 5296 5301 5307 5313 5321 5329 5338 5347 5357 5367 5376 5385 5394 5403 5413 5422 5432 5441 5451 5461 5473 5486 5500
5472 5458 5443 5427 5410 5392 5373 5352 5330 5309 5295 5286 5282 5280 5280 5280 5282 5283 5285 5288 5291 5296 5301 5307 5315 5323 5332 5341 5351 5360 5369 5378 5388 5396 5405 5414 5422 5431 5440 5450 5461 5474 5487
5472 5459 5444 5428 5412 5395 5377 5358 5337 5317 5301 5291 5285 5282 5281 5281 5282 5283 5284 5286 5289 5292 5297 5303 5310 5317 5326 5336 5345 5354 5363 5373 5381 5390 5398 5406 5414 5422 5432 5442 5453 5466 5478
5474 5461 5447 5432 5416 5400 5383 5365 5346 5326 5309 5297 5290 5286 5284 5283 5284 5284 5285 5286 5287 5290 5294 5300 5307 5314 5322 5331 5340 5349 5358 5367 5376 5384 5392 5400 5408 5417 5426 5436 5447 5458 5469
5476 5464 5451 5436 5421 5405 5389 5372 5355 5337 5320 5306 5297 5291 5288 5286 5286 5286 5285 5286 5287 5288 5292 5297 5304 5311 5318 5327 5336 5344 5353 5361 5370 5378 5387 5395 5403 5412 5421 5431 5441 5451 5460
5479 5467 5454 5441 5426 5411 5395 5379 5363 5346 5331 5318 5307 5298 5293 5291 5289 5288 5286 5286 5287 5288 5290 5294 5301 5308 5315 5323 5332 5340 5348 5356 5365 5373 5382 5390 5398 5407 5416 5425 5434 5443 5451
5484 5472 5459 5446 5432 5418 5403 5388 5374 5359 5345 5333 5320 5310 5302 5296 5293 5291 5289 5287 5287 5287 5289 5292 5297 5304 5311 5319 5328 5336 5344 5352 5359 5368 5376 5384 5393 5401 5410 5418 5427 5436 5444
5488 5476 5464 5452 5439 5426 5413 5400 5387 5373 5359 5347 5335 5324 5314 5306 5300 5295 5292 5289 5288 5287 5288 5290 5294 5300 5307 5315 5323 5331 5339 5347 5355 5362 5370 5378 5387 5395 5403 5411 5420 5428 5436
5492 5481 5469 5458 5445 5433 5421 5410 5398 5386 5373 5361 5349 5338 5328 5319 5310 5303 5297 5293 5290 5288 5288 5289 5292 5296 5303 5310 5318 5326 5334 5342 5349 5357 5364 5372 5380 5388 5396 5404 5412 5420 5428
5497 5486 5475 5463 5452 5441 5430 5419 5408 5396 5385 5373 5362 5351 5342 5332 5323 5314 5306 5299 5294 5291 5289 5289 5290 5293 5298 5305 5312 5320 5328 5336 5343 5351 5358 5366 5373 5381 5388 5396 5404 5412 5419
5500 5490 5480 5469 5459 5448 5437 5427 5417 5407 5396 5385 5375 5365 5355 5345 5336 5327 5318 5310 5303 5297 5293 5291 5291 5292 5295 5300 5307 5314 5322 5329 5337 5344 5352 5359 5366 5373 5381 5388 5396 5403 5411
5504 5494 5485 5475 5464 5454 5444 5434 5425 5415 5406 5396 5386 5376 5366 5357 5348 5339 5331 5323 5315 5308 5302 5297 5294 5294 5295 5297 5302 5308 5315 5322 5329 5337 5344 5351 5358 5366 5373 5380 5387 5394 5402
5507 5498 5489 5480 5470 5460 5451 5441 5432 5423 5414 5405 5395 5386 5377 5368 5360 5351 5343 5334 5327 5320 5313 5307 5302 5299 5297 5297 5299 5302 5308 5314 5321 5327 5335 5342 5349 5356 5363 5370 5378 5385 5393
5509 5501 5492 5484 5475 5466 5457 5448 5439 5430 5422 5413 5404 5395 5387 5379 5371 5362 5354 5346 5338 5331 5325 5319 5313 5308 5303 5300 5299 5300 5302 5306 5311 5317 5324 5331 5338 5345 5352 5359 5366 5374 5381
5512 5504 5495 5487 5480 5472 5463 5455 5446 5437 5429 5420 5412 5403 5395 5387 5380 5372 5364 5357 5349 5342 5335 5329 5323 5317 5312 5308 5304 5301 5300 5301 5303 5308 5313 5319 5326 5333 5340 5347 5354 5361 5369
5515 5507 5499 5491 5483 5476 5468 5460 5452 5443 5435 5427 5419 5410 5403 5395 5387 5380 5373 5366 5358 5351 5344 5337 5331 5326 5320 5315 5311 5306 5303 5300 5299 5300 5302 5306 5312 5318 5326 5333 5341 5348 5356
5517 5510 5502 5494 5487 5479 5472 5464 5456 5449 5441 5432 5424 5417 5409 5401 5394 5387 5380 5373 5366 5359 5352 5345 5338 5332 5326 5321 5316 5312 5307 5303 5300 5297 5295 5296 5299 5303 5310 5317 5325 5333 5341